Theta_e
306 304 301 300 296 293 293 293 292 292 291 291 290 290 289 288 285 284 284 285 284 287 285 284 288 286 286 286 285 285 284 287 286 283 283 283 282 288 291 291 292 292 292 293 294 295 295 295 295 294 294 295 295 295 295 295 296 296 297 298 299 299 299 299 299 299 297 299 299 297 298 300 301 300
303 301 297 295 293 292 292 291 291 291 291 290 291 289 288 287 287 285 285 285 284 286 286 284 285 285 285 285 287 286 284 289 285 283 282 282 282 290 290 289 290 290 291 292 293 294 294 294 294 293 293 294 294 295 295 295 295 296 296 297 298 297 297 298 298 298 298 297 296 299 299 300 300 300
301 297 296 293 292 291 291 290 290 289 290 289 289 288 288 288 286 285 283 282 284 286 285 285 284 284 285 286 284 285 284 286 285 282 282 281 287 288 286 288 288 289 290 291 292 292 292 293 293 293 293 293 294 294 294 294 294 294 295 295 296 297 297 297 296 296 295 298 299 299 299 299 299 299
299 296 294 291 291 289 289 289 289 288 288 288 288 288 287 286 286 285 281 282 284 285 284 284 285 285 284 285 284 284 284 285 287 282 282 282 285 282 281 286 287 287 288 290 290 290 290 291 291 292 292 293 293 293 293 293 292 293 293 294 295 296 296 296 295 294 296 296 297 297 297 297 297 298
297 295 294 290 289 288 288 287 287 288 287 287 287 287 286 285 284 285 282 281 283 284 284 284 284 285 284 283 284 284 282 281 282 284 281 281 280 280 281 280 284 285 287 288 289 288 289 289 289 290 290 291 291 291 292 291 290 290 291 292 294 295 296 295 296 296 294 295 295 296 296 296 296 297
295 294 293 290 287 286 287 286 286 286 286 286 286 286 285 284 285 283 283 282 283 283 283 283 284 284 283 281 283 283 282 282 281 280 280 280 280 280 280 280 280 285 286 288 287 287 287 288 288 288 288 289 289 289 290 289 289 289 290 291 292 293 294 295 295 294 294 294 294 295 295 295 295 296
294 292 291 289 287 286 286 285 285 285 285 286 286 285 285 284 284 283 283 283 282 282 282 282 283 282 283 283 282 282 282 282 281 280 279 279 280 280 279 279 280 284 286 287 286 286 286 286 287 287 287 288 288 288 288 288 288 288 289 290 291 292 292 293 292 293 293 293 294 294 293 294 295 295
292 291 289 287 286 285 285 284 285 285 285 285 285 284 284 284 283 283 283 282 282 282 282 282 282 283 281 281 281 282 281 280 280 279 279 279 279 278 279 278 278 282 285 285 284 284 284 285 285 286 286 286 287 287 287 287 287 287 288 289 290 291 291 291 291 291 291 292 292 293 293 292 293 293
292 291 289 287 286 285 284 284 284 284 284 284 284 284 284 284 283 284 283 283 282 282 281 281 282 282 281 281 281 280 279 279 278 278 278 278 278 277 277 278 280 282 283 282 282 282 282 283 284 285 285 285 286 286 285 285 285 286 287 288 289 290 290 291 290 290 290 290 290 291 292 292 292 292
291 289 288 286 286 285 284 284 284 284 284 284 284 283 283 283 283 282 282 282 282 282 281 281 281 281 281 280 279 280 279 279 278 278 278 278 278 277 277 277 278 278 278 277 278 279 280 281 282 284 284 284 284 284 284 284 285 286 287 288 289 290 290 290 290 290 290 289 290 290 290 290 290 290
288 287 286 286 285 285 284 284 284 284 284 284 284 284 283 283 282 282 282 282 281 281 280 280 281 280 280 280 279 279 278 277 277 275 275 275 277 277 275 275 275 275 276 278 279 279 279 280 279 281 282 282 283 282 282 283 284 285 286 288 288 289 289 289 289 289 289 289 289 289 288 288 289 289
286 286 286 286 285 285 285 285 285 285 285 284 283 283 283 283 282 282 282 281 281 280 280 280 279 280 280 278 278 278 277 275 274 274 273 271 273 275 275 274 273 273 275 274 274 277 277 277 278 280 279 280 281 281 280 281 283 284 286 287 288 288 289 289 289 289 288 288 288 288 288 288 287 288
285 285 285 285 284 284 285 286 286 286 286 285 283 283 283 282 282 282 282 281 280 280 280 279 280 279 278 278 277 275 273 272 271 271 273 271 274 274 273 273 274 272 273 273 272 273 273 273 274 275 274 276 278 277 279 279 282 284 286 287 287 288 288 289 288 288 288 288 288 288 287 287 286 286
284 284 284 284 284 285 285 285 287 287 287 287 285 284 283 283 282 282 281 280 280 280 279 279 279 278 278 277 276 275 275 274 273 273 271 270 272 272 270 270 271 271 273 272 270 271 273 271 273 273 273 275 276 275 275 278 282 283 286 286 287 287 288 288 288 287 287 287 287 287 286 286 285 285
283 283 283 283 284 285 285 285 287 287 287 287 287 286 285 285 283 282 280 280 280 279 279 280 279 278 277 276 276 276 273 273 272 272 271 270 270 270 269 266 269 272 272 270 269 270 272 271 271 272 272 273 274 275 276 282 283 284 285 286 286 286 287 287 287 287 286 286 286 287 286 285 284 284
283 282 283 283 284 284 284 285 286 286 287 287 287 286 286 286 285 285 282 280 280 280 278 278 278 278 277 275 275 274 274 273 271 271 270 269 271 270 269 269 266 269 273 269 267 268 269 270 270 270 272 273 274 275 278 281 283 284 284 285 285 286 286 286 286 286 286 285 285 286 286 285 284 283
282 282 282 282 283 283 284 284 284 284 284 286 286 286 286 286 286 285 285 284 282 282 279 278 278 278 277 275 275 275 275 276 269 270 270 272 273 272 270 269 266 270 270 267 265 266 268 269 270 269 271 272 273 273 276 281 282 283 283 284 284 285 285 286 286 285 285 285 285 285 286 285 284 283
282 282 282 282 281 282 283 283 283 283 283 283 282 282 281 282 283 285 285 284 283 282 280 278 277 277 276 275 276 277 277 272 268 269 271 273 272 271 270 268 269 271 271 267 266 264 265 268 267 268 270 272 272 271 276 279 281 282 283 283 284 284 284 285 284 284 284 284 284 284 285 284 283 282
282 282 282 282 282 282 282 282 283 282 282 281 280 280 279 280 280 281 281 281 281 280 279 278 277 277 277 277 276 276 276 273 273 275 274 274 273 270 267 266 266 268 269 269 268 262 264 266 266 267 269 270 270 269 273 278 280 281 281 282 283 283 284 284 283 283 283 283 284 284 284 284 283 281
281 282 282 281 281 281 281 283 284 283 281 280 278 278 278 278 279 279 280 281 281 279 278 278 277 277 277 278 276 276 275 276 277 275 270 267 261 263 262 263 262 263 267 271 269 262 261 265 267 268 270 269 268 268 266 275 278 280 280 281 282 282 283 283 282 282 282 283 283 283 284 284 282 281
281 281 281 281 281 281 281 283 285 285 282 279 278 277 277 277 277 277 279 282 282 282 282 281 281 281 281 281 281 281 281 279 277 271 269 265 259 262 262 261 258 262 265 268 269 264 264 266 268 269 269 269 268 264 265 269 275 278 279 280 281 281 281 281 281 281 281 282 282 283 283 283 282 280
280 280 281 281 281 281 281 285 286 285 282 278 278 277 277 276 275 275 277 278 280 282 281 281 280 279 279 279 280 280 280 280 277 268 265 262 261 261 260 261 260 264 265 266 271 265 263 266 269 269 270 268 263 264 266 271 271 274 275 278 279 280 280 280 280 280 280 281 282 282 282 282 281 277
279 280 281 282 281 281 282 286 286 285 282 279 278 277 277 276 275 276 277 277 276 274 273 273 273 274 275 274 272 274 278 278 276 271 267 263 262 261 259 261 261 262 262 267 270 265 265 267 268 269 267 262 263 262 267 268 267 268 269 271 273 278 278 278 278 279 279 280 281 281 282 282 281 277
279 280 280 282 283 283 285 286 287 286 283 279 278 278 277 276 276 277 276 277 276 274 273 272 272 271 271 272 272 271 270 270 271 271 268 266 264 261 261 262 263 262 261 262 272 266 266 267 265 270 269 266 263 265 267 267 267 267 268 271 271 275 275 275 275 277 277 278 280 280 281 281 281 277
278 278 279 279 283 285 286 287 287 286 284 282 279 278 277 278 278 278 276 277 277 273 271 270 269 269 269 270 270 270 269 268 268 269 271 267 266 264 262 261 263 264 266 266 272 266 263 264 265 268 268 268 268 268 268 268 266 264 268 269 271 272 270 270 271 270 274 275 277 279 279 280 280 279
277 277 278 278 282 285 286 287 287 287 285 283 279 279 280 280 281 277 276 276 274 271 270 269 269 269 268 268 268 268 268 268 268 265 266 267 263 264 265 265 263 262 263 264 273 264 263 263 266 267 268 268 267 269 267 266 263 263 268 268 270 271 270 268 268 269 269 269 269 275 277 279 279 279
277 278 278 279 283 285 285 287 287 287 286 283 280 282 282 281 281 277 274 273 272 270 269 269 269 269 268 268 268 267 266 265 265 264 263 263 264 265 263 264 265 266 266 266 266 265 264 263 267 267 266 268 267 267 266 264 264 268 269 269 269 267 268 267 268 267 268 268 268 275 275 277 278 278
277 277 277 279 283 285 286 287 287 287 286 282 282 283 282 282 279 273 272 272 271 270 269 269 269 269 269 268 267 267 267 265 263 262 262 263 263 263 263 265 265 265 265 265 265 265 265 265 266 268 269 268 266 264 263 267 267 267 267 270 268 265 265 267 267 267 268 268 267 268 269 269 272 274
275 279 280 281 283 285 285 286 287 286 286 284 283 283 282 281 275 273 272 271 270 269 269 270 270 270 269 269 268 268 267 266 263 263 263 264 264 265 265 266 265 265 266 266 266 266 265 266 266 268 268 264 263 263 264 264 266 266 268 268 267 269 265 267 267 266 267 267 267 267 267 268 271 274
281 281 281 282 283 285 285 285 284 283 284 284 283 282 281 278 274 273 271 271 270 270 270 270 270 270 269 269 268 267 267 266 266 265 265 265 265 263 263 265 266 265 265 265 266 265 265 266 266 264 261 260 261 261 262 263 265 267 268 268 269 269 265 266 266 267 266 265 265 266 267 268 271 273
280 281 281 281 283 283 284 284 283 282 283 283 282 280 279 275 274 273 272 271 270 270 270 270 270 269 269 269 268 268 268 267 266 266 266 265 264 264 263 264 265 266 267 265 264 265 264 264 264 264 261 260 262 263 263 264 265 266 267 268 269 266 267 265 265 265 265 265 264 265 266 268 269 272
280 280 281 281 281 282 282 281 279 278 278 279 278 277 275 274 273 273 273 272 271 270 270 269 269 268 268 268 268 267 267 267 266 266 266 265 264 265 263 263 263 264 265 267 265 265 267 265 265 263 263 263 263 262 261 263 265 266 266 268 268 268 266 263 262 264 264 263 262 264 264 265 267 270
279 279 279 279 279 279 279 277 276 276 276 276 276 275 273 272 272 272 271 270 270 269 269 268 268 268 268 268 267 267 267 267 266 266 265 266 265 264 264 264 264 264 264 265 265 266 265 263 264 264 264 264 264 264 263 262 262 263 265 266 265 263 262 260 263 263 263 261 259 260 262 264 266 270
278 277 277 277 277 277 277 276 275 275 274 274 273 272 273 271 271 270 270 270 270 269 269 269 268 268 268 267 267 266 266 267 267 267 267 265 265 264 264 264 264 265 266 265 265 264 264 263 263 264 263 264 264 264 264 263 263 262 263 263 262 260 260 261 262 261 262 262 261 259 261 264 266 269
277 276 276 276 276 276 276 275 275 274 273 273 273 272 271 271 270 270 270 270 269 269 268 268 268 268 267 267 267 266 267 266 266 266 267 266 265 264 264 264 264 265 265 265 264 263 263 263 263 263 263 263 263 262 268 266 264 266 263 261 259 258 258 260 263 263 261 261 261 261 258 258 264 267
275 276 275 275 275 275 275 275 274 273 273 273 272 272 271 271 271 270 270 270 269 268 268 267 267 267 267 267 266 266 266 266 265 265 265 265 264 264 265 264 265 265 265 265 264 263 261 261 261 262 260 261 259 258 262 272 271 266 261 260 256 257 255 259 259 259 260 260 261 259 261 262 263 266
274 275 275 275 275 274 274 274 274 273 273 272 272 272 271 271 271 271 271 271 269 268 268 268 267 267 267 267 266 266 266 266 265 265 265 265 264 264 264 264 265 265 265 265 264 262 261 260 262 261 260 260 259 257 260 264 270 271 265 263 260 257 257 257 257 259 259 259 258 260 261 261 266 269
274 275 274 275 275 274 274 274 274 273 273 273 272 272 272 271 271 271 270 269 268 268 268 268 267 267 266 266 266 265 265 265 265 264 264 264 263 263 264 263 263 264 264 265 264 262 261 261 261 261 261 260 258 258 257 260 263 266 271 266 262 263 261 259 259 258 259 258 260 261 259 260 265 268
275 275 275 275 275 275 274 274 274 273 273 273 272 272 272 271 271 270 269 269 268 268 267 267 267 266 266 266 266 265 265 264 264 264 264 264 264 263 263 264 264 265 264 264 264 262 261 260 261 261 262 261 260 258 258 258 260 260 266 270 267 264 264 263 262 261 258 257 258 257 259 260 266 272
276 275 275 275 275 275 275 275 274 274 274 273 273 273 272 271 270 269 268 268 267 267 267 267 267 266 266 266 265 265 265 264 264 264 264 264 264 264 263 264 264 264 263 264 264 263 261 261 260 261 261 263 263 263 262 263 263 263 262 266 271 269 267 265 263 262 261 261 257 259 258 257 259 262
277 276 276 276 276 275 275 275 274 274 274 273 273 273 272 271 270 268 267 267 267 266 266 266 266 266 266 266 265 265 264 264 264 264 264 264 264 264 264 265 263 264 263 263 263 262 261 262 263 266 264 261 261 262 262 260 260 259 258 262 268 272 272 272 267 264 260 259 257 257 257 258 258 256
277 276 276 276 276 276 275 274 274 274 273 273 272 271 271 270 270 269 268 267 267 266 266 266 266 266 266 265 265 265 264 264 264 264 264 263 263 264 264 264 263 263 263 262 263 263 262 260 261 261 260 260 261 261 259 261 260 259 258 258 259 268 272 272 272 272 267 261 255 257 258 257 256 256
276 275 275 275 275 275 276 275 275 274 273 273 272 271 270 269 269 268 267 266 266 266 266 266 266 266 266 265 265 265 264 264 264 263 263 263 263 262 263 264 264 263 263 263 264 262 261 261 260 259 259 258 260 262 260 261 261 260 259 259 260 259 261 269 271 272 273 273 271 264 258 257 255 256
273 273 273 273 274 274 275 275 274 274 273 272 272 271 270 269 268 268 268 267 266 266 266 266 265 265 265 265 265 264 264 264 264 263 263 263 263 263 263 263 263 263 262 262 262 262 261 260 260 260 258 258 259 259 260 261 262 262 261 261 261 260 260 258 262 269 271 273 273 273 273 272 271 271
274 273 273 273 274 274 274 274 273 273 272 271 270 269 268 268 268 267 267 267 266 266 265 265 264 264 264 264 263 262 263 264 264 263 263 263 263 263 263 263 262 262 262 262 261 261 260 259 259 258 257 258 259 259 261 261 262 261 261 261 261 261 259 261 262 263 265 266 271 273 273 273 273 274
Wind_Speed
8 7 8 8 7 6 4 5 6 5 4 5 6 7 9 7 8 6 6 6 5 4 1 3 1 1 2 4 3 5 4 4 3 3 3 4 4 7 13 14 15 16 16 16 16 17 18 19 19 19 19 20 21 22 23 23 25 25 25 26 28 29 29 28 29 28 28 30 31 32 32 34 34 35
7 6 5 5 6 4 5 6 5 5 6 6 6 6 5 6 8 6 8 7 3 3 1 1 2 0 1 3 4 3 3 2 3 3 3 4 4 9 10 12 14 15 16 15 15 16 17 18 19 19 19 20 21 22 22 23 24 25 26 26 28 30 28 29 28 28 29 31 31 31 33 33 34 34
8 7 7 5 6 4 5 5 5 4 6 6 6 6 6 5 5 7 5 4 2 3 4 1 1 3 1 2 3 3 1 1 3 3 3 4 7 8 5 10 13 15 15 15 15 16 18 18 18 19 19 20 21 21 22 23 24 25 25 26 27 27 29 29 28 28 28 29 30 31 32 33 34 35
7 9 8 7 7 5 5 5 5 5 4 6 6 6 6 5 4 5 5 6 4 2 2 4 2 4 3 2 4 1 1 2 5 3 3 3 5 3 3 6 12 14 14 14 14 16 18 18 18 19 19 20 20 21 22 23 24 24 25 25 26 27 29 29 26 27 29 29 30 30 31 32 33 34
7 8 8 7 5 5 6 5 5 5 6 6 6 6 6 6 3 4 3 6 4 1 2 2 2 1 3 1 1 0 0 2 3 3 2 3 3 3 4 4 8 13 14 13 13 17 18 18 18 19 19 20 20 21 21 23 23 23 24 25 25 26 28 29 29 29 28 29 30 30 31 32 33 34
6 7 8 7 6 5 6 5 6 6 7 7 7 6 6 6 4 2 3 3 5 5 0 2 1 2 2 1 0 2 1 1 1 3 3 3 3 3 5 5 6 12 13 12 13 17 17 17 17 18 18 19 19 20 21 22 22 22 24 24 25 25 27 28 27 28 29 30 31 31 31 32 32 34
8 9 9 8 7 5 6 5 5 5 6 6 7 6 5 6 4 2 3 4 4 7 3 1 2 1 1 1 1 1 2 1 1 1 2 3 4 3 3 5 5 10 13 11 14 17 17 17 17 17 18 18 18 19 20 21 21 21 23 24 24 25 26 27 27 28 28 29 31 31 31 31 32 33
11 11 9 8 8 8 8 6 6 5 6 7 6 6 5 6 5 3 3 2 4 3 5 2 3 1 1 1 0 1 1 2 2 2 1 3 5 4 3 3 4 7 11 11 15 15 15 16 16 17 18 18 19 20 21 21 20 21 22 23 23 24 26 26 26 27 27 29 29 30 30 31 31 32
11 10 11 10 9 9 9 7 7 7 7 6 7 7 6 6 4 3 3 3 3 4 5 3 1 2 2 1 1 0 1 2 1 2 3 3 5 5 3 2 4 7 8 10 13 13 13 14 15 16 18 19 19 20 20 20 20 21 22 22 22 22 24 24 25 25 26 27 28 28 29 30 31 32
9 10 9 10 10 10 11 10 8 8 8 7 7 7 6 6 5 5 3 4 4 4 3 4 2 1 2 1 1 1 2 1 2 1 2 2 1 2 7 4 2 1 2 4 6 8 9 12 15 16 17 19 19 20 20 20 20 21 22 22 22 23 24 24 24 25 26 27 27 27 28 29 30 31
8 8 8 9 10 11 10 11 11 10 8 8 8 8 8 7 6 6 5 5 4 4 3 2 3 3 2 2 3 1 2 3 2 3 5 2 2 0 2 6 2 0 3 5 10 10 9 10 9 14 16 17 18 19 19 19 20 21 23 22 22 22 24 24 24 25 26 26 26 27 28 29 30 31
8 8 8 9 9 9 9 10 10 11 11 8 8 6 7 7 7 6 6 5 5 5 4 5 5 4 4 1 1 1 2 4 2 2 1 4 6 6 4 2 3 2 3 5 6 7 7 6 8 10 12 15 18 18 17 18 18 21 22 21 21 21 22 23 23 23 24 26 27 28 27 28 29 31
8 7 8 7 7 6 7 9 10 10 10 11 10 7 8 8 8 7 6 5 5 5 5 4 3 4 4 4 4 1 1 2 1 1 0 2 2 4 5 4 2 2 4 5 4 5 5 4 5 6 6 7 13 12 17 13 18 21 21 21 21 21 22 22 22 23 24 25 27 28 27 27 28 29
8 9 8 7 9 10 10 11 11 12 11 9 10 12 11 10 8 8 8 7 6 6 6 7 6 5 6 6 5 3 2 2 2 0 0 1 3 2 3 2 0 1 5 6 7 6 5 3 4 5 6 6 8 7 7 9 15 19 21 21 21 21 21 21 21 22 23 24 25 26 26 26 27 28
10 8 8 7 9 10 10 10 13 12 12 10 9 8 9 9 11 11 8 7 7 8 7 5 5 5 6 5 4 3 3 2 2 1 1 2 2 2 4 3 5 1 5 5 5 7 6 3 5 5 5 6 7 7 8 17 20 21 20 21 21 21 21 20 21 22 23 24 24 25 26 27 27 27
9 10 9 7 7 8 9 9 9 10 11 10 10 11 10 8 5 6 8 9 8 7 7 6 7 6 6 4 4 3 3 3 1 1 1 1 1 1 1 1 2 3 5 4 4 7 4 2 4 5 5 6 5 8 13 18 20 20 20 20 21 21 20 20 21 22 23 23 23 24 26 26 28 27
10 9 9 9 6 6 11 9 8 8 9 10 11 10 9 8 10 9 7 5 5 7 6 7 6 7 5 5 3 4 4 3 3 2 1 1 1 1 2 3 2 5 2 2 3 3 4 2 5 5 5 5 5 6 10 17 19 20 19 20 20 20 20 20 21 22 22 22 23 24 25 26 27 27
11 12 12 11 9 7 8 7 9 9 9 9 8 7 6 5 6 7 7 6 5 5 5 6 6 3 4 4 4 5 4 4 3 3 2 1 1 2 3 3 4 5 1 1 2 2 1 2 3 5 5 4 5 4 9 17 19 19 19 19 20 20 20 19 20 21 22 22 22 23 24 24 26 27
11 11 11 11 12 11 10 9 10 11 10 9 8 7 6 6 5 4 4 4 3 3 3 3 3 4 4 6 7 5 4 4 3 3 2 1 1 1 2 3 2 3 1 2 1 2 3 1 3 3 5 5 5 3 6 15 19 20 19 19 19 20 20 19 20 21 21 21 21 23 23 24 25 25
7 7 9 10 10 11 10 11 15 11 10 9 10 9 6 5 4 3 2 4 3 3 2 3 5 4 6 7 5 5 4 3 3 4 4 3 3 3 4 4 3 0 4 1 1 2 2 2 3 4 5 4 5 4 2 10 19 19 19 19 20 21 20 19 20 20 20 20 21 22 22 22 23 24
8 8 9 9 10 11 10 14 17 16 13 10 10 9 8 6 5 4 3 7 7 7 8 8 8 7 5 5 5 6 7 6 5 4 1 1 1 2 3 4 2 2 1 2 2 1 4 3 4 6 4 4 4 2 3 5 13 19 19 19 20 20 21 19 19 19 20 20 20 21 22 22 21 23
7 8 11 9 10 11 11 17 18 18 13 10 10 10 10 9 7 5 3 4 4 7 6 6 6 4 3 4 4 5 5 5 8 6 4 3 4 0 1 2 2 5 3 2 2 2 2 4 5 6 5 5 2 0 3 6 9 13 12 18 20 19 20 19 18 19 19 19 19 19 21 21 19 11
6 7 9 11 9 8 12 20 19 19 14 10 10 10 10 9 9 8 8 7 7 5 4 2 2 2 3 3 3 1 4 5 5 4 4 5 4 3 2 1 2 5 1 2 3 4 4 5 6 7 6 1 3 2 2 4 5 6 6 8 9 15 18 17 16 18 18 18 19 19 20 20 17 8
7 7 7 8 11 13 17 19 19 18 16 9 8 8 9 9 10 7 8 7 6 5 5 4 2 2 1 1 2 1 1 1 3 3 4 5 6 5 5 3 2 3 3 2 4 3 2 2 3 5 2 4 5 5 4 5 4 5 4 7 7 10 12 12 11 16 18 18 18 18 19 20 18 8
7 6 6 5 11 15 17 18 19 18 17 11 8 9 9 6 4 9 7 8 8 6 4 4 3 3 2 3 3 3 3 2 1 2 3 5 5 6 6 5 5 6 6 4 4 4 2 1 3 2 3 2 5 7 5 5 5 3 5 5 7 7 5 6 5 7 11 15 17 18 18 19 20 15
5 7 7 8 12 18 18 17 18 18 17 15 8 7 8 9 11 9 6 6 6 5 5 4 4 4 4 5 4 4 4 3 3 2 3 3 3 4 6 6 6 4 5 3 6 1 0 3 2 3 4 3 5 5 8 6 3 4 5 5 5 4 4 5 6 6 6 7 7 11 14 19 17 19
9 7 7 6 13 17 18 17 18 17 18 13 7 12 12 11 13 10 6 6 6 6 5 4 5 5 5 5 5 5 5 3 3 4 3 2 2 1 3 4 5 6 5 4 4 3 3 3 4 4 4 4 5 5 5 5 6 7 7 5 5 3 3 4 6 6 6 6 7 14 14 14 16 18
5 7 7 8 15 16 16 17 18 17 15 9 13 14 14 14 12 7 6 6 6 5 4 5 5 6 5 4 4 5 4 5 4 4 3 2 2 3 4 5 4 5 5 5 5 4 5 5 4 4 5 5 5 5 7 5 5 6 8 7 4 2 3 4 5 6 6 6 6 7 7 7 7 8
3 5 7 9 13 14 15 16 17 14 14 14 14 14 14 12 7 7 6 6 6 6 7 7 5 5 5 5 3 4 4 4 3 2 0 0 1 2 4 5 5 5 4 4 5 5 5 5 5 4 4 3 3 4 3 6 6 6 7 9 7 5 3 5 4 4 6 6 5 6 6 6 7 7
7 9 9 11 11 10 10 9 8 6 8 13 15 14 12 6 7 7 7 6 7 7 6 6 6 5 4 4 4 5 5 5 4 3 2 1 2 1 2 4 4 3 5 5 4 4 4 5 5 3 3 4 3 4 4 3 6 5 6 6 6 6 1 5 5 4 4 6 6 5 6 6 6 6
5 7 7 7 9 6 9 7 5 4 5 8 8 6 6 6 6 6 6 7 7 6 5 5 4 3 4 4 5 5 5 4 3 4 4 3 3 2 2 1 5 4 4 2 2 3 3 2 2 3 2 3 3 4 4 3 6 6 6 5 5 5 6 4 4 4 4 5 4 5 5 7 7 7
5 5 5 6 5 4 5 5 3 3 3 3 4 5 5 5 5 6 6 4 3 3 2 2 2 3 4 5 5 5 4 4 4 4 5 4 3 2 1 1 3 2 4 4 2 2 2 2 0 1 2 3 4 4 2 4 5 5 6 6 5 5 4 3 3 4 4 4 4 5 5 4 5 6
5 5 5 5 6 7 7 6 5 5 5 4 4 5 4 5 5 6 6 7 6 5 4 5 5 5 5 6 4 5 5 4 5 3 4 3 4 3 3 5 4 4 4 4 2 3 2 2 0 2 4 4 5 6 5 6 5 4 5 5 4 5 5 3 2 3 4 3 2 3 4 5 4 5
6 7 7 7 8 8 8 8 8 7 6 6 5 5 5 5 5 6 6 6 5 5 6 5 5 6 7 7 4 3 3 4 4 4 6 4 4 4 4 4 5 4 4 5 4 4 2 1 2 4 3 4 6 8 8 7 6 3 4 3 4 6 5 2 3 2 1 2 2 3 3 5 5 5
8 8 9 8 7 7 7 7 7 6 6 7 6 6 6 5 7 7 6 7 5 5 7 6 6 6 8 9 4 5 6 6 5 4 4 5 4 5 4 5 5 4 4 4 4 2 0 2 4 5 3 4 7 3 9 10 3 5 1 2 3 3 4 2 2 4 3 3 0 1 2 3 4 5
8 7 8 7 7 7 7 7 5 6 7 7 7 6 7 8 8 8 8 6 6 6 6 8 7 7 7 7 7 7 6 6 6 6 5 5 5 4 4 5 5 5 4 5 4 3 1 0 1 2 4 5 4 5 5 9 10 4 3 1 3 1 3 4 3 1 3 2 1 1 1 0 3 4
7 7 7 7 6 7 7 6 6 7 7 7 8 8 9 9 8 7 6 6 7 8 8 7 8 8 8 7 7 7 7 7 7 6 7 6 5 5 5 5 6 5 5 5 4 3 2 1 0 0 0 3 2 3 6 4 2 6 6 1 3 2 3 3 3 5 3 1 1 0 1 1 1 3
7 5 6 5 6 6 7 7 7 7 8 8 8 8 8 8 5 5 6 6 8 7 8 8 8 8 8 8 8 7 7 7 6 6 6 6 6 6 6 6 5 5 5 4 4 4 4 3 3 3 3 4 3 4 3 4 3 2 2 3 2 5 2 2 3 2 4 2 2 1 1 0 1 2
7 7 7 8 8 7 8 8 9 10 9 9 9 10 9 7 6 6 7 8 8 8 8 8 8 8 8 8 8 8 8 7 8 8 7 7 7 7 6 6 5 5 4 5 3 4 3 4 4 4 5 5 6 4 3 2 5 5 9 14 7 5 5 2 4 2 2 3 3 2 2 3 5 7
7 7 7 7 8 8 9 8 8 9 9 9 8 7 7 8 7 7 7 8 8 8 8 9 9 8 8 8 8 7 7 9 9 8 8 7 6 6 6 5 5 5 4 5 5 5 5 5 4 5 5 5 5 5 4 5 5 4 5 11 15 9 5 3 3 2 3 3 1 0 2 3 1 3
8 8 8 8 7 7 7 7 7 7 7 7 7 6 7 7 7 8 8 8 8 8 9 9 9 10 9 9 9 9 9 8 7 7 6 6 7 7 7 6 5 5 5 7 6 5 6 6 6 5 3 1 0 1 2 4 7 3 3 7 9 9 11 7 5 4 4 1 1 1 1 1 1 2
7 8 7 7 7 7 6 6 6 6 6 6 6 7 7 7 7 7 8 8 9 9 9 9 9 9 9 9 8 9 9 9 9 8 8 7 7 6 8 7 7 6 7 8 7 6 2 2 2 1 0 0 0 2 6 6 7 6 3 5 6 5 5 7 7 6 6 5 2 1 0 1 0 1
5 5 5 5 5 5 6 6 6 6 6 6 7 7 6 7 6 7 7 8 9 8 9 8 8 8 8 8 8 9 9 9 8 8 8 8 8 8 8 8 8 7 7 6 4 1 3 2 1 1 0 2 3 4 7 6 5 5 4 4 5 4 5 5 6 9 10 11 10 7 5 3 2 1
5 5 5 5 6 6 7 7 7 7 7 7 7 6 7 7 8 9 8 8 8 9 8 8 7 8 8 8 7 7 8 8 8 8 9 8 8 8 7 6 6 5 5 5 4 4 3 3 2 3 2 3 3 4 6 5 6 5 4 3 2 2 3 2 2 5 7 8 11 12 12 11 9 8
5 6 6 6 6 6 6 6 6 6 6 6 6 7 7 7 8 7 7 8 8 8 8 8 7 8 8 8 8 9 9 7 7 7 6 7 7 7 6 6 6 5 5 5 4 4 2 2 2 1 2 3 3 4 6 6 6 5 4 3 4 3 3 1 1 4 2 2 3 5 8 5 6 9
Wind_Direction
174 172 177 175 166 174 152 139 147 153 143 144 152 159 163 166 143 171 201 226 173 223 149 144 195 108 113 103 77 71 49 32 49 36 24 354 341 332 346 350 352 350 348 346 346 348 350 351 351 351 351 349 347 345 346 344 343 342 339 337 334 336 343 349 351 351 353 351 350 350 350 349 347 343
168 163 157 149 158 163 156 154 149 146 144 136 140 138 135 144 158 165 176 218 193 149 78 115 160 212 134 101 66 81 53 344 54 39 23 350 331 339 349 351 349 347 345 345 346 346 350 351 352 352 352 349 347 347 346 345 344 342 340 339 335 338 345 349 350 352 351 350 350 351 352 348 346 344
156 162 162 159 157 158 152 141 134 133 133 134 122 118 119 124 138 155 142 137 236 136 156 52 89 143 190 111 94 50 30 353 44 42 11 335 335 350 349 351 349 344 342 343 346 350 352 353 354 355 353 350 348 348 347 347 345 342 340 338 338 339 344 346 350 353 352 352 352 351 349 347 345 343
162 159 164 171 166 159 144 145 143 136 128 128 123 125 120 115 129 136 136 143 171 38 157 137 117 129 124 107 81 22 338 24 51 35 355 336 349 353 347 351 348 341 338 341 349 353 353 356 358 357 353 350 349 348 348 348 346 343 340 338 339 340 344 347 347 351 354 350 349 349 348 346 344 344
164 165 166 171 166 153 153 156 147 138 135 118 114 118 117 120 123 130 124 132 144 357 28 109 126 110 105 47 125 107 339 3 358 0 347 16 3 344 353 353 339 335 334 342 355 354 355 359 359 357 354 350 350 349 350 350 347 344 341 339 339 341 345 347 351 350 349 350 349 349 348 346 344 343
169 164 163 167 161 162 151 156 162 154 140 135 128 130 133 140 141 129 111 130 145 172 287 84 11 75 64 113 286 179 223 33 11 358 344 13 6 353 354 354 331 327 333 345 359 355 357 360 357 355 353 352 352 352 352 351 348 344 341 340 340 343 347 349 351 352 353 351 350 349 348 346 344 343
170 169 173 170 159 150 147 165 169 153 141 137 136 138 134 136 139 109 107 125 150 159 191 147 91 105 16 142 239 91 156 154 161 34 11 13 347 359 359 346 326 321 332 348 358 358 358 358 354 353 354 354 354 355 354 352 349 345 341 341 342 344 348 351 355 356 355 351 350 348 348 347 346 344
174 175 166 170 161 153 155 166 167 153 141 140 137 132 134 132 136 116 98 90 131 148 145 223 152 213 135 300 55 126 85 74 26 70 3 10 350 339 342 344 314 314 332 355 358 2 358 354 352 351 353 356 357 357 355 352 349 345 342 342 342 344 350 353 356 356 355 353 352 350 349 348 347 345
172 171 174 164 161 158 157 170 165 159 151 146 138 139 138 136 132 111 110 100 88 132 153 158 239 190 215 222 111 155 110 336 18 48 43 353 328 319 311 323 297 312 350 358 357 4 358 350 350 351 355 357 358 357 354 352 349 345 343 343 342 344 351 353 356 357 356 355 352 351 350 350 348 346
174 171 166 163 164 164 170 173 165 160 154 147 145 141 139 137 133 129 116 113 109 124 145 149 190 250 190 197 144 158 111 56 338 4 44 345 299 341 320 315 301 292 9 343 351 357 350 344 348 351 356 356 357 356 353 352 348 345 344 344 343 342 349 355 357 358 358 357 354 351 351 349 348 345
163 162 160 163 168 174 179 168 167 161 156 155 156 153 147 146 142 144 147 141 138 148 156 187 195 208 258 177 199 186 116 79 98 49 338 348 177 204 288 312 323 147 11 1 353 347 345 344 345 353 356 356 356 356 353 349 346 345 345 345 344 343 347 353 353 355 358 358 355 351 349 349 348 346
156 155 157 167 176 182 182 173 166 162 157 152 150 154 145 150 150 155 155 153 159 168 181 191 197 204 186 233 47 129 62 53 19 56 87 297 317 332 321 265 284 299 12 352 347 339 333 324 333 349 353 354 355 352 351 339 342 346 345 344 345 345 346 350 353 354 357 356 355 354 351 350 349 347
150 154 163 171 175 178 184 182 171 167 160 155 155 162 157 157 158 155 162 167 166 178 180 202 194 182 202 208 181 178 99 136 183 244 146 263 275 292 308 315 13 49 5 344 338 326 321 318 334 344 349 349 351 346 344 331 340 347 345 345 347 347 347 351 356 358 359 358 357 355 353 352 350 348
163 162 158 161 168 171 171 168 164 158 160 162 161 162 164 162 161 164 166 175 182 176 185 200 185 193 215 204 187 167 174 129 114 82 254 278 293 288 291 275 273 6 14 351 337 321 313 339 336 353 348 341 347 338 330 333 348 346 347 347 349 349 349 351 355 358 359 358 356 355 355 354 351 351
161 153 146 149 159 160 163 163 161 158 155 143 132 137 155 165 164 163 171 185 178 182 193 189 190 204 204 206 173 161 148 141 143 202 201 250 288 356 23 344 310 43 32 351 330 317 316 359 355 343 336 335 338 337 330 345 351 350 349 350 352 351 350 352 356 358 358 357 354 355 356 356 355 353
158 155 147 149 156 165 166 159 155 153 143 132 140 146 148 153 156 178 168 169 180 188 184 189 205 188 202 182 162 151 133 156 143 180 181 221 288 13 47 269 266 264 30 334 313 297 293 12 357 345 331 330 331 332 338 350 353 353 352 353 354 354 353 353 358 360 359 357 354 353 357 357 356 355
157 156 149 148 155 159 157 153 151 146 143 137 130 129 130 149 167 177 191 211 196 175 179 186 196 198 169 162 179 156 152 139 159 178 199 225 281 283 266 249 271 302 351 322 287 274 281 20 358 340 318 322 319 329 332 352 355 356 355 354 356 356 356 356 359 1 359 357 353 352 356 358 357 358
165 167 161 157 159 162 161 158 154 148 144 143 140 143 149 152 159 174 186 175 170 177 181 175 191 170 139 161 135 149 150 141 173 175 209 229 251 263 262 267 273 285 310 273 283 308 289 20 7 333 310 305 315 318 338 355 358 0 357 356 358 359 358 359 2 2 360 357 355 352 355 359 359 359
173 172 166 162 161 163 166 170 165 156 154 149 149 148 155 157 158 163 160 145 145 141 135 143 125 122 102 112 123 140 143 159 170 182 198 189 284 299 321 301 256 288 269 305 299 259 265 340 2 308 306 306 307 304 333 353 3 1 360 358 360 359 360 2 4 3 1 359 355 354 355 360 1 0
166 174 166 160 162 167 170 172 167 159 151 149 151 156 155 161 165 171 161 158 156 136 125 125 119 124 147 142 155 162 170 167 172 141 82 54 46 36 351 309 314 328 304 280 42 276 283 288 353 313 296 303 298 310 324 354 1 2 360 359 0 0 1 3 4 4 3 359 357 356 357 0 2 1
166 178 177 167 164 166 171 171 168 161 152 152 157 160 161 159 156 168 175 186 178 168 153 149 153 158 168 182 194 205 200 197 158 122 113 287 103 57 1 318 12 278 311 294 7 252 299 322 343 318 316 301 283 289 323 345 357 358 359 359 359 1 3 2 3 5 3 359 357 357 1 0 6 2
169 179 182 173 169 171 170 171 168 166 158 160 163 160 157 159 166 177 160 148 162 158 139 130 121 128 155 182 186 200 205 181 134 139 185 209 124 117 142 246 291 291 299 258 322 48 307 332 338 336 301 285 274 82 329 12 347 349 348 351 354 358 2 360 0 3 2 359 358 359 3 3 8 3
174 175 184 182 173 167 166 171 172 170 166 165 168 164 157 168 187 187 167 167 158 138 133 94 99 76 73 71 91 135 153 161 136 144 160 147 134 161 185 208 325 339 309 246 22 29 318 12 346 349 337 311 277 196 353 11 340 333 337 340 337 350 358 358 359 2 2 2 360 1 5 6 9 5
181 179 174 172 170 168 172 175 175 176 172 166 160 159 168 175 198 169 173 179 164 165 161 144 131 153 139 146 131 116 82 97 140 147 136 156 150 154 178 185 178 212 250 265 23 58 295 26 337 335 321 319 310 309 343 332 352 321 332 341 339 345 349 352 354 358 2 2 1 1 6 10 13 5
165 164 170 174 180 176 178 179 181 178 175 167 163 173 182 180 128 145 166 177 163 155 150 142 155 191 177 182 179 187 185 190 189 180 162 160 162 156 171 185 208 229 253 267 315 76 291 342 305 300 289 244 278 306 319 323 320 331 330 337 335 337 344 339 340 342 351 353 352 360 6 13 15 17
174 180 177 180 185 182 183 183 183 180 177 171 161 178 160 143 149 154 152 147 145 148 140 127 169 192 189 192 192 204 199 203 190 143 124 141 160 185 177 182 194 216 260 263 300 320 211 310 240 287 288 290 277 313 314 319 299 328 330 324 333 326 345 336 342 346 350 341 330 354 9 15 16 17
185 181 183 182 185 183 185 184 183 180 179 171 169 171 165 160 150 137 136 143 146 153 145 155 194 202 192 191 195 194 202 198 145 139 138 150 158 212 222 216 202 212 242 263 263 210 194 234 267 263 281 290 294 311 299 311 323 335 325 341 333 337 335 350 352 343 342 339 327 347 351 5 13 17
175 178 185 185 188 185 184 185 186 184 178 167 170 173 169 166 144 133 142 154 163 166 167 187 206 210 205 190 189 197 183 163 159 155 173 212 214 215 245 246 239 234 236 243 255 231 202 223 260 256 264 290 290 302 305 297 307 319 318 323 301 298 346 351 356 346 339 336 328 339 340 345 349 3
171 173 172 177 188 186 185 188 189 190 182 168 171 170 171 165 134 151 155 163 166 184 196 202 207 213 201 192 181 159 142 131 122 100 37 319 264 246 254 251 247 248 238 235 239 233 211 217 235 258 271 243 241 267 270 293 314 310 321 320 328 343 346 352 360 354 337 330 330 339 338 326 351 359
155 166 170 177 190 192 188 187 191 189 186 170 167 172 175 151 151 156 160 168 183 202 198 197 207 204 160 173 155 139 136 148 171 147 148 133 284 351 329 326 274 253 240 244 238 234 228 215 229 228 245 264 224 242 247 281 294 296 303 305 299 306 303 9 343 346 347 329 325 328 324 332 348 358
150 158 163 181 189 195 188 187 177 162 163 172 169 170 171 152 162 166 178 185 195 199 190 194 200 148 162 134 135 148 155 171 181 153 169 167 215 195 265 277 289 307 296 274 252 225 189 191 199 164 210 261 266 237 238 240 279 289 291 293 300 310 311 345 342 337 332 323 315 325 339 348 352 358
144 144 146 167 175 173 179 174 141 149 148 160 163 171 155 154 159 172 167 174 201 207 160 151 119 107 160 180 159 145 156 168 185 169 172 174 207 196 148 331 265 271 286 299 310 262 240 209 201 252 217 214 249 274 246 226 235 258 274 282 286 290 299 305 318 316 326 327 353 342 323 335 347 341
122 132 150 160 171 184 184 169 171 171 172 179 176 165 151 159 163 172 176 198 204 187 174 186 183 183 172 171 152 164 177 187 177 173 179 197 176 223 181 215 246 261 274 282 260 282 302 305 284 216 237 250 232 230 243 278 262 218 238 262 298 287 291 290 279 293 333 11 349 320 330 333 332 339
152 171 175 182 184 184 185 185 188 187 182 183 187 192 181 172 183 193 198 204 195 177 192 190 183 182 170 188 173 181 188 180 197 193 184 200 179 183 213 228 244 233 242 255 258 252 276 301 328 307 267 262 246 214 200 208 244 246 221 266 273 271 275 275 301 299 327 251 270 345 335 333 324 342
177 181 190 190 189 193 191 195 192 183 185 197 197 200 193 193 199 204 203 207 182 186 180 184 195 190 186 189 174 184 204 200 203 197 199 172 195 201 205 229 246 237 235 253 255 259 81 334 351 340 327 349 355 320 208 193 184 232 352 279 238 254 277 290 323 328 347 333 193 190 309 305 330 325
196 191 191 188 192 187 195 199 181 180 195 201 205 200 198 213 206 202 213 191 182 197 196 195 200 197 202 202 202 203 202 196 196 192 197 199 199 211 206 223 232 241 235 235 234 231 151 18 37 6 355 336 13 346 329 207 189 156 155 273 306 304 282 309 322 329 355 335 5 134 155 312 301 308
198 199 199 196 189 189 199 185 189 199 202 203 206 208 212 216 208 204 198 170 193 205 206 196 204 199 201 199 200 202 199 194 200 195 201 204 200 201 214 233 233 233 233 241 205 203 155 137 174 154 262 324 300 271 256 326 262 150 128 87 310 281 281 317 359 344 300 246 310 329 198 201 286 309
213 195 204 202 197 192 194 196 194 203 205 207 209 212 220 221 203 173 154 174 200 202 203 206 207 201 202 197 196 202 198 202 195 201 203 191 195 207 209 218 231 231 235 234 203 205 181 167 189 214 190 217 247 251 283 300 350 230 66 45 331 296 304 337 341 319 304 310 227 255 115 165 256 290
199 199 199 204 206 201 200 202 201 208 207 206 207 212 213 211 200 189 186 200 199 200 203 206 208 206 201 201 201 197 193 191 200 205 202 203 199 200 211 213 223 230 215 240 206 198 176 182 197 199 202 208 214 223 186 231 263 265 300 301 290 281 269 232 265 269 250 284 295 303 261 248 271 294
201 199 205 202 207 204 211 203 208 210 212 212 214 212 206 210 198 192 193 199 201 203 201 209 206 201 206 200 200 199 203 203 204 202 200 198 199 199 204 210 214 212 224 246 237 222 199 214 207 204 216 222 229 230 220 250 259 259 270 284 278 259 238 181 216 212 292 250 186 39 296 352 1 326
200 204 212 208 211 211 213 213 212 211 216 214 213 206 205 204 196 202 200 199 195 197 205 210 205 205 206 201 198 193 201 206 204 204 196 192 196 197 202 200 215 211 211 244 237 228 214 217 213 222 194 187 347 51 318 291 274 278 296 286 290 267 235 221 199 169 213 193 142 153 223 241 262 350
202 211 210 208 212 216 210 216 211 212 217 209 209 206 209 207 215 192 192 198 200 206 210 210 207 205 207 201 197 196 202 204 201 199 195 190 193 199 202 203 208 213 208 227 232 231 204 160 174 154 59 99 134 202 243 241 264 282 273 283 300 287 255 269 268 226 191 158 121 140 154 355 26 328
215 215 211 210 210 212 212 212 211 208 216 208 211 206 205 209 203 196 203 202 206 208 215 214 208 206 208 202 200 200 203 208 201 195 192 192 191 194 200 204 205 202 212 230 242 193 184 183 165 140 172 153 208 202 241 249 248 265 272 284 278 288 305 291 277 273 252 208 199 188 169 167 139 240
219 221 224 207 203 210 212 210 212 207 208 210 209 203 203 205 209 210 206 209 205 212 212 212 208 205 207 203 198 202 209 208 200 195 195 194 195 198 199 202 196 195 204 219 230 231 201 199 205 176 191 234 198 205 245 250 261 254 250 247 253 225 247 277 318 295 279 236 213 212 216 206 209 221
217 215 217 216 214 213 212 211 210 208 205 207 204 205 208 210 217 212 212 211 215 211 207 208 206 207 200 196 191 204 210 199 198 201 193 194 196 195 195 190 193 196 205 206 205 242 217 196 233 158 197 229 213 220 239 238 251 249 252 258 267 253 221 161 292 287 275 303 289 232 215 239 298 302